Simultaneous Nadir Overpasses (SNOs) Predictions

Prediction of SNOs between NPP and TERRA Satellite Orbit:

Table of predicted SNOs for the next 14.0 days since TLE Epoch: 9/26/2014
Index Date (NPP) Time (NPP) Lat,Lon (NPP) SZA (NPP ) Date (TERRA) Time (TERRA) Lat,Lon (TERRA) SZA (TERRA ) Distance(km) Time Diff (sec)
1 09/28/2014 21:09:49 69.24,-137.90 71.39 09/28/2014 21:10:54 69.24,-137.92 71.40 0.51 65
2 09/28/2014 22:00:30 -69.12, 29.59 108.72 09/28/2014 22:00:24 -69.15, 29.59 108.69 3.61 6
3 09/28/2014 22:51:08 68.66,-162.48 70.84 09/28/2014 22:49:57 68.71,-163.32 70.88 34.58 71
4 10/01/2014 13:26:45 69.25, -22.14 72.44 10/01/2014 13:27:36 69.23, -22.11 72.43 2.39 51
5 10/01/2014 14:17:26 -69.12, 145.36 107.67 10/01/2014 14:17:07 -69.09, 145.34 107.71 3.23 19
6 10/01/2014 15:07:55 68.18, -46.08 71.43 10/01/2014 15:06:47 68.26, -48.05 71.46 81.39 68
7 10/04/2014 05:43:40 69.21, 93.69 73.44 10/04/2014 05:44:24 69.22, 93.67 73.45 0.86 44
8 10/04/2014 06:34:21 -69.08, -98.81 106.68 10/04/2014 06:33:55 -69.09, -98.87 106.68 2.38 26
9 10/06/2014 22:00:35 69.23,-150.57 74.50 10/06/2014 22:01:16 69.25,-150.51 74.52 3.27 41
10 10/06/2014 22:51:16 -69.09, 16.94 105.63 10/06/2014 22:50:48 -69.07, 16.89 105.66 3.09 28
11 10/09/2014 14:17:30 69.20, -34.75 75.49 10/09/2014 14:18:16 69.22, -34.79 75.52 2.90 46
12 10/09/2014 15:08:12 -69.11, 132.69 104.59 10/09/2014 15:07:47 -69.11, 132.69 104.60 0.57 25
